Home   Weather   Gotha   Past weeks

Flag for Germany Past Weather in Gotha, Thuringia, Germany — Yesterday and Last 2 Weeks

Now
37 °F

Clear.


Feels Like: 35 °F
Forecast: 39 / 54 °F
Wind: 3 mph from Northeast

Location: Erfurt-Bindersleben

Current Time: Apr 30, 2017 at 5:42:27 am

Latest Report: Apr 30, 2017 at 5:20 am


Visibility: 10 mi

Pressure: 30.07 "Hg

Humidity: 81%

Dew Point: 32 °F

Location of GothaLocation

Past Weather in Gotha — Graph

°F

Gotha Temperature Yesterday

Maximum temperature yesterday: 52 °F (at 2:20 pm)
Minimum temperature yesterday: 37 °F (at 2:50 am)
Average temperature yesterday: 45 °F

High & Low Weather Summary for the Past Weeks

 TemperatureHumidityPressure
High57 °F (Apr 24, 3:20 pm)100% (Apr 15, 5:20 pm)30.57 "Hg (Apr 15, 5:20 pm)
Low27 °F (Apr 20, 5:50 am)39% (Apr 24, 5:20 pm)29.62 "Hg (Apr 25, 4:20 am)
Average41 °F75%30.07 "Hg
* Reported Apr 15 4:20 am — Apr 30 4:20 am, Gotha, Weather by CustomWeather, © 2017

Note: Actual official high and low records may vary slightly from our data, if they occured in-between our weather recording intervals... More about our weather records

Advertising

Gotha Weather History for the Previous 24 Hours

Scroll right to see more
 ConditionsComfort  
Time TempWeatherWind HumidityBarometerVisibility
4:20 am
Sun, Apr 30
39 °FClear.5 mph75%30.07 "Hg10 mi
3:50 am39 °FClear.3 mph75%30.07 "Hg10 mi
3:20 am41 °FClear.2 mph70%30.07 "Hg10 mi
2:50 am39 °FClear.1 mph75%30.07 "Hg10 mi
2:20 am39 °FClear.1 mph75%30.07 "Hg10 mi
1:50 am39 °FClear.2 mph70%30.07 "Hg10 mi
1:20 am39 °FClear.5 mph70%30.07 "Hg10 mi
12:50 am41 °FClear.5 mph70%30.07 "Hg10 mi
12:20 am43 °FClear.2 mph61%30.07 "Hg10 mi
11:50 pm
Sat, Apr 29
43 °FClear.3 mph61%30.07 "Hg10 mi
11:20 pm43 °FClear.2 mph61%30.07 "Hg10 mi
10:50 pm43 °FClear.3 mph61%30.07 "Hg10 mi
10:20 pm43 °FClear.3 mph61%30.07 "Hg10 mi
9:50 pm43 °FClear.2 mph57%30.07 "Hg10 mi
9:20 pm43 °FClear.2 mph57%30.07 "Hg10 mi
8:50 pm43 °FClear.5 mph57%30.07 "Hg10 mi
8:20 pm46 °FSunny.8 mph50%30.07 "Hg10 mi
7:50 pm46 °FSunny.9 mph50%30.04 "Hg10 mi
7:20 pm48 °FSunny.9 mph50%30.04 "Hg10 mi
6:50 pm50 °FPassing clouds.10 mph47%30.04 "HgN/A
6:20 pm50 °FSunny.12 mph47%30.04 "Hg10 mi
5:50 pm52 °FPassing clouds.10 mph47%30.04 "HgN/A
5:20 pm52 °FPassing clouds.13 mph47%30.04 "HgN/A
4:50 pm52 °FPassing clouds.12 mph47%30.04 "HgN/A
4:20 pm50 °FScattered clouds.13 mph50%30.01 "HgN/A
3:50 pm52 °FScattered clouds.10 mph50%30.04 "HgN/A
2:50 pm52 °FScattered clouds.13 mph58%30.01 "HgN/A
2:20 pm52 °FScattered clouds.9 mph54%30.04 "HgN/A
1:50 pm48 °FScattered clouds.12 mph62%30.04 "HgN/A
12:50 pm48 °FScattered clouds.12 mph58%30.01 "HgN/A
12:20 pm48 °FScattered clouds.12 mph62%30.04 "HgN/A
11:50 am48 °FScattered showers. Scattered clouds.12 mph62%30.04 "HgN/A
11:20 am50 °FScattered clouds.14 mph58%30.04 "HgN/A
10:50 am48 °FScattered clouds.12 mph58%30.04 "HgN/A
9:50 am46 °FScattered clouds.9 mph66%30.01 "HgN/A
9:20 am46 °FPassing clouds.9 mph76%30.01 "HgN/A
8:50 am45 °FScattered clouds.10 mph76%30.01 "HgN/A
8:20 am43 °FScattered clouds.9 mph81%30.01 "HgN/A
7:50 am41 °FBroken clouds.9 mph87%30.01 "HgN/A
7:20 am41 °FBroken clouds.7 mph81%30.01 "HgN/A
6:50 am39 °FSprinkles. Broken clouds.8 mph87%30.01 "HgN/A
6:20 am39 °FPartly sunny.9 mph87%30.01 "HgN/A
5:50 am39 °FPassing clouds.7 mph81%29.98 "HgN/A
5:20 am39 °FPassing clouds.7 mph81%29.98 "HgN/A
Weather by CustomWeather, © 2017

See weather overviewHow to use our weather pages